RYR713 EGGD-LCPH

Flight info

Callsign RYR713
Flight time N/A
Altitude 35000
Route YORQI DCT NUCHU L607 BIG L15 MOTOX DCT RUCAC DCT LESDO DCT BUBLI DCT LUVAL DCT SHARA DCT DEVDI DCT RIPUS DCT RESIA DCT PUL DCT MAVAR DCT TALAS DCT TSL DCT RIKSO UP14 ZAFLE DCT BENEM DCT EVENO DCT DASNI DCT TOBAL
Aircraft B38M/M-SDE1FGHILORVWXY/HB1

Departure

Time N/A
Airport Bristol Airport (EGGD)

Arrival

Time 2026-04-20 14:06
Airport Paphos International Airport (LCPH)
Time Latitude Longitude Altitude Speed Heading
2026-04-20 13:13 38.12358 27.00506 34978 ft 491 kts 137°
2026-04-20 13:14 38.09907 27.03536 34975 ft 491 kts 138°
2026-04-20 13:14 38.05000 27.09595 34992 ft 492 kts 138°
2026-04-20 13:15 38.00089 27.15647 34990 ft 492 kts 138°
2026-04-20 13:15 37.95178 27.21687 34991 ft 491 kts 138°
2026-04-20 13:16 37.90267 27.27715 34997 ft 493 kts 138°
2026-04-20 13:16 37.85334 27.33758 34989 ft 493 kts 138°
2026-04-20 13:17 37.80633 27.40018 34988 ft 495 kts 134°
2026-04-20 13:17 37.75990 27.46438 34976 ft 495 kts 135°
2026-04-20 13:18 37.71319 27.52825 34972 ft 495 kts 135°
2026-04-20 13:18 37.66645 27.59205 34962 ft 495 kts 135°
2026-04-20 13:19 37.61959 27.65590 34964 ft 496 kts 135°
2026-04-20 13:19 37.57267 27.71971 34959 ft 496 kts 135°
2026-04-20 13:20 37.52540 27.78388 34961 ft 497 kts 135°
2026-04-20 13:20 37.47863 27.84722 34957 ft 497 kts 135°
2026-04-20 13:21 37.43154 27.91085 34958 ft 497 kts 135°
2026-04-20 13:21 37.38432 27.97456 34954 ft 497 kts 135°
2026-04-20 13:22 37.33718 28.03802 34951 ft 497 kts 135°
2026-04-20 13:22 37.28985 28.10162 34951 ft 497 kts 135°
2026-04-20 13:23 37.24256 28.16505 34948 ft 497 kts 135°
2026-04-20 13:23 37.19516 28.22848 34950 ft 498 kts 135°
2026-04-20 13:24 37.14778 28.29175 34947 ft 498 kts 135°
2026-04-20 13:24 37.10032 28.35504 34945 ft 499 kts 135°
2026-04-20 13:25 37.05272 28.41838 34937 ft 499 kts 136°
2026-04-20 13:25 37.00514 28.48155 34933 ft 499 kts 136°
2026-04-20 13:26 36.95775 28.54437 34926 ft 499 kts 136°
2026-04-20 13:26 36.91011 28.60739 34918 ft 499 kts 136°
2026-04-20 13:27 36.86238 28.67040 34910 ft 499 kts 136°
2026-04-20 13:27 36.81460 28.73337 34908 ft 500 kts 136°
2026-04-20 13:28 36.76675 28.79627 34909 ft 500 kts 136°
2026-04-20 13:28 36.71886 28.85915 34908 ft 500 kts 136°
2026-04-20 13:29 36.67095 28.92191 34911 ft 500 kts 136°
2026-04-20 13:29 36.62296 28.98464 34905 ft 500 kts 136°
2026-04-20 13:30 36.57498 29.04727 34918 ft 500 kts 136°
2026-04-20 13:30 36.52685 29.10994 34927 ft 500 kts 136°
2026-04-20 13:31 36.47875 29.17248 34922 ft 500 kts 136°
2026-04-20 13:31 36.43056 29.23499 34935 ft 500 kts 136°
2026-04-20 13:32 36.38236 29.29741 34933 ft 501 kts 136°
2026-04-20 13:32 36.33406 29.35983 34938 ft 501 kts 136°
2026-04-20 13:33 36.28566 29.42228 34941 ft 501 kts 136°
2026-04-20 13:33 36.23761 29.48416 34935 ft 501 kts 137°
2026-04-20 13:34 36.18929 29.54626 34943 ft 501 kts 137°
2026-04-20 13:34 36.14089 29.60833 34943 ft 502 kts 137°
2026-04-20 13:35 36.09231 29.67053 34944 ft 502 kts 137°
2026-04-20 13:35 36.04364 29.73273 34944 ft 502 kts 136°
2026-04-20 13:35 36.02199 29.76672 34930 ft 506 kts 121°
2026-04-20 13:36 36.00613 29.80553 34948 ft 508 kts 118°
2026-04-20 13:36 35.97177 29.88186 34949 ft 508 kts 121°
2026-04-20 13:37 35.93747 29.95752 34947 ft 509 kts 121°
2026-04-20 13:37 35.90292 30.03376 34945 ft 509 kts 121°
2026-04-20 13:38 35.86831 30.10992 34944 ft 509 kts 121°
2026-04-20 13:38 35.83370 30.18594 34940 ft 509 kts 121°
2026-04-20 13:39 35.79897 30.26205 34948 ft 509 kts 121°
2026-04-20 13:39 35.76428 30.33792 34943 ft 509 kts 121°
2026-04-20 13:40 35.72948 30.41382 34950 ft 509 kts 121°
2026-04-20 13:40 35.69467 30.48959 34951 ft 509 kts 121°
2026-04-20 13:41 35.65978 30.56537 34949 ft 509 kts 121°
2026-04-20 13:41 35.62480 30.64116 34950 ft 509 kts 121°
2026-04-20 13:42 35.58980 30.71683 34951 ft 509 kts 121°
2026-04-20 13:42 35.55489 30.79215 34498 ft 508 kts 121°
2026-04-20 13:42 35.53754 30.82952 33968 ft 500 kts 121°
2026-04-20 13:43 35.52037 30.86646 33345 ft 494 kts 121°
2026-04-20 13:43 35.50338 30.90296 32735 ft 488 kts 121°
2026-04-20 13:43 35.48663 30.93893 32136 ft 483 kts 121°
2026-04-20 13:43 35.46969 30.97522 31463 ft 492 kts 121°
2026-04-20 13:44 35.45268 31.01165 30796 ft 493 kts 121°
2026-04-20 13:44 35.43561 31.04818 30163 ft 491 kts 121°
2026-04-20 13:44 35.41869 31.08434 29446 ft 488 kts 121°
2026-04-20 13:44 35.40183 31.12035 28554 ft 489 kts 121°
2026-04-20 13:45 35.38468 31.15692 27810 ft 497 kts 121°
2026-04-20 13:45 35.36739 31.19375 27120 ft 499 kts 121°
2026-04-20 13:45 35.35009 31.23056 26461 ft 497 kts 121°
2026-04-20 13:45 35.33291 31.26711 25810 ft 492 kts 121°
2026-04-20 13:46 35.31592 31.30319 25187 ft 487 kts 121°
2026-04-20 13:46 35.30467 31.32707 24773 ft 484 kts 121°
2026-04-20 13:46 35.28794 31.36254 24173 ft 479 kts 121°
2026-04-20 13:46 35.26599 31.40903 23363 ft 473 kts 121°
2026-04-20 13:47 35.24958 31.44375 22669 ft 469 kts 121°
2026-04-20 13:47 35.23333 31.47810 21995 ft 464 kts 120°
2026-04-20 13:47 35.22241 31.50114 21542 ft 461 kts 120°
2026-04-20 13:47 35.20643 31.53485 20893 ft 456 kts 120°
2026-04-20 13:48 35.19081 31.56779 20266 ft 452 kts 120°
2026-04-20 13:48 35.17513 31.60081 19640 ft 447 kts 120°
2026-04-20 13:48 35.15957 31.63353 19034 ft 443 kts 120°
2026-04-20 13:48 35.14415 31.66594 18438 ft 439 kts 120°
2026-04-20 13:49 35.12886 31.69804 17785 ft 435 kts 120°
2026-04-20 13:49 35.11369 31.72987 17119 ft 431 kts 119°
2026-04-20 13:49 35.09866 31.76137 16467 ft 427 kts 119°
2026-04-20 13:49 35.08376 31.79259 15826 ft 423 kts 119°
2026-04-20 13:50 35.06898 31.82349 15200 ft 420 kts 119°
2026-04-20 13:50 35.05434 31.85411 14587 ft 417 kts 119°
2026-04-20 13:50 35.03973 31.88463 13987 ft 416 kts 119°
2026-04-20 13:50 35.02512 31.91508 13346 ft 415 kts 119°
2026-04-20 13:51 35.01069 31.94516 12691 ft 403 kts 119°
2026-04-20 13:51 34.99680 31.97412 12063 ft 390 kts 119°
2026-04-20 13:51 34.98325 32.00230 11448 ft 378 kts 119°
2026-04-20 13:51 34.97014 32.02958 10842 ft 368 kts 119°
2026-04-20 13:52 34.95734 32.05617 10239 ft 359 kts 119°
2026-04-20 13:52 34.94484 32.08212 9629 ft 352 kts 119°
2026-04-20 13:52 34.93258 32.10755 9051 ft 343 kts 119°
2026-04-20 13:52 34.92011 32.13190 8510 ft 334 kts 123°
2026-04-20 13:53 34.90728 32.15470 8005 ft 326 kts 123°
2026-04-20 13:53 34.89464 32.17734 7483 ft 319 kts 123°
2026-04-20 13:53 34.88234 32.19948 6971 ft 313 kts 123°
2026-04-20 13:53 34.87025 32.22128 6464 ft 308 kts 123°
2026-04-20 13:54 34.85840 32.24264 5945 ft 302 kts 123°
2026-04-20 13:54 34.84671 32.26372 5407 ft 299 kts 123°
2026-04-20 13:54 34.83514 32.28459 4875 ft 296 kts 123°
2026-04-20 13:54 34.82368 32.30524 4331 ft 293 kts 123°
2026-04-20 13:55 34.81244 32.32547 4061 ft 280 kts 123°
2026-04-20 13:55 34.80187 32.34446 4056 ft 264 kts 123°
2026-04-20 13:55 34.79181 32.36253 4052 ft 250 kts 123°
2026-04-20 13:55 34.78226 32.37965 4035 ft 239 kts 123°
2026-04-20 13:56 34.77327 32.39577 4015 ft 234 kts 123°
2026-04-20 13:56 34.76413 32.41211 4028 ft 234 kts 123°
2026-04-20 13:56 34.75499 32.42851 4023 ft 233 kts 123°
2026-04-20 13:56 34.74625 32.44415 3974 ft 233 kts 123°
2026-04-20 13:57 34.73675 32.46116 3978 ft 234 kts 123°
2026-04-20 13:57 34.72761 32.47749 3990 ft 234 kts 123°
2026-04-20 13:57 34.71857 32.49364 3998 ft 234 kts 123°
2026-04-20 13:57 34.70965 32.51014 3992 ft 233 kts 120°
2026-04-20 13:58 34.70142 32.52711 3865 ft 233 kts 120°
2026-04-20 13:58 34.69320 32.54421 3506 ft 235 kts 119°
2026-04-20 13:58 34.68500 32.56140 3131 ft 235 kts 119°
2026-04-20 13:58 34.67675 32.57861 2758 ft 235 kts 119°
2026-04-20 13:59 34.66860 32.59560 2497 ft 228 kts 120°
2026-04-20 13:59 34.66083 32.61175 2423 ft 215 kts 120°
2026-04-20 13:59 34.65337 32.62726 2449 ft 211 kts 119°
2026-04-20 13:59 34.64594 32.64266 2481 ft 212 kts 120°
2026-04-20 14:00 34.63850 32.65812 2512 ft 211 kts 120°
2026-04-20 14:00 34.63319 32.67456 2446 ft 207 kts 91°
2026-04-20 14:00 34.63613 32.69099 2419 ft 198 kts 52°
2026-04-20 14:00 34.64612 32.70117 2454 ft 185 kts 13°
2026-04-20 14:01 34.65844 32.70148 2453 ft 176 kts 336°
2026-04-20 14:01 34.66782 32.69278 2492 ft 172 kts 300°
2026-04-20 14:01 34.67069 32.67889 2564 ft 172 kts 271°
2026-04-20 14:01 34.67055 32.66460 2542 ft 168 kts 272°
2026-04-20 14:02 34.67063 32.65049 2515 ft 167 kts 278°
2026-04-20 14:02 34.67281 32.63673 2508 ft 166 kts 288°
2026-04-20 14:02 34.67625 32.62335 2268 ft 165 kts 290°
2026-04-20 14:02 34.68007 32.61047 2067 ft 156 kts 291°
2026-04-20 14:03 34.68361 32.59869 1847 ft 143 kts 292°
2026-04-20 14:03 34.68709 32.58744 1651 ft 140 kts 292°
2026-04-20 14:03 34.69028 32.57674 1499 ft 132 kts 292°
2026-04-20 14:03 34.69339 32.56648 1301 ft 128 kts 293°
2026-04-20 14:04 34.69644 32.55638 1125 ft 132 kts 290°
2026-04-20 14:04 34.69936 32.54578 1050 ft 131 kts 290°
2026-04-20 14:04 34.70244 32.53549 879 ft 127 kts 291°
2026-04-20 14:04 34.70561 32.52544 635 ft 130 kts 290°
2026-04-20 14:05 34.70892 32.51487 432 ft 136 kts 290°
2026-04-20 14:05 34.71222 32.50418 199 ft 133 kts 290°
2026-04-20 14:05 34.71527 32.49425 54 ft 112 kts 290°
2026-04-20 14:05 34.71744 32.48707 44 ft 57 kts 290°
2026-04-20 14:06 34.71810 32.48439 47 ft 11 kts 245°
2026-04-20 14:06 34.71729 32.48386 47 ft 18 kts 197°
2026-04-20 14:06 34.71654 32.48443 44 ft 19 kts 110°
2026-04-20 14:06 34.71589 32.48652 46 ft 33 kts 111°
2026-04-20 14:07 34.71508 32.48902 42 ft 10 kts 155°
2026-04-20 14:07 34.71459 32.48868 44 ft 8 kts 256°
2026-04-20 14:07 34.71413 32.48818 45 ft 10 kts 184°
2026-04-20 14:07 34.71394 32.48827 45 ft 6 kts 154°
2026-04-20 14:08 34.71373 32.48839 45 ft 0 kts 154°
2026-04-20 14:08 34.71367 32.48843 43 ft 0 kts 154°